Home   Weather   Rotenburg (Wümme)   Past weeks

Flag for Germany Past Weather in Rotenburg (Wümme), Lower Saxony, Germany — Yesterday and Last 2 Weeks

Now
28 °F

Clear.


Feels Like: 23 °F
Forecast: 26 / 37 °F
Wind: 5 mph from Southeast

Location: Bremen Airport

Current Time: Dec 6, 2016 at 10:51:33 pm

Latest Report: Dec 6, 2016 at 10:20 pm


Visibility: 10 mi

Pressure: 30.51 "Hg

Humidity: 93%

Dew Point: 27 °F

Location of Rotenburg (Wümme)Location

Past Weather in Rotenburg (Wümme) — Graph

°F

Rotenburg (Wümme) Temperature Yesterday

Maximum temperature yesterday: 32 °F (at 1:20 pm)
Minimum temperature yesterday: 18 °F (at 5:50 am)
Average temperature yesterday: 24 °F

High & Low Weather Summary for the Past Weeks

 TemperatureHumidityPressure
High57 °F (Nov 22, 12:50 pm)100% (Nov 23, 9:20 pm)30.60 "Hg (Nov 23, 9:20 pm)
Low18 °F (Nov 29, 7:20 am)57% (Dec 2, 1:20 pm)29.56 "Hg (Nov 21, 9:20 pm)
Average36 °F87%30.24 "Hg
* Reported Nov 21 9:20 pm — Dec 6 9:50 pm, Rotenburg (Wümme), Weather by CustomWeather, © 2016

Note: Actual official high and low records may vary slightly from our data, if they occured in-between our weather recording intervals... More about our weather records

Advertising

Rotenburg (Wümme) Weather History for the Previous 24 Hours

Scroll right to see more
 ConditionsComfort  
Time TempWeatherWind HumidityBarometerVisibility
9:50 pm
Tue, Dec 6
27 °FClear.5 mph93%30.51 "Hg10 mi
9:20 pm28 °FClear.3 mph93%30.51 "Hg10 mi
8:50 pm27 °FClear.3 mph93%30.51 "Hg10 mi
8:20 pm27 °FFog.5 mph100%30.51 "HgN/A
7:50 pm28 °FFog.3 mph93%30.51 "HgN/A
6:50 pm28 °FClear.5 mph86%30.51 "Hg10 mi
6:20 pm28 °FFog.3 mph93%30.48 "HgN/A
5:50 pm28 °FFog.2 mph93%30.51 "HgN/A
5:20 pm30 °FFog.3 mph93%30.51 "HgN/A
4:50 pm30 °FFog.3 mph93%30.51 "HgN/A
4:20 pm32 °FPassing clouds.2 mph93%30.51 "HgN/A
3:50 pm34 °FPassing clouds.3 mph81%30.48 "HgN/A
3:20 pm37 °FPassing clouds.No wind75%30.48 "HgN/A
2:50 pm37 °FPassing clouds.1 mph75%30.48 "HgN/A
2:20 pm36 °FPassing clouds.3 mph75%30.48 "HgN/A
1:50 pm36 °FPassing clouds.3 mph70%30.48 "HgN/A
1:20 pm36 °FPassing clouds.2 mph75%30.48 "HgN/A
12:50 pm32 °FPassing clouds.3 mph87%30.48 "HgN/A
12:20 pm32 °FPassing clouds.2 mph87%30.48 "HgN/A
11:50 am30 °FPassing clouds.2 mph93%30.48 "HgN/A
11:20 am30 °FPassing clouds.No wind86%30.48 "HgN/A
10:50 am28 °FPassing clouds.No wind86%30.48 "HgN/A
10:20 am27 °FPassing clouds.No wind93%30.45 "HgN/A
9:50 am25 °FPassing clouds.No wind93%30.45 "HgN/A
9:20 am21 °FPassing clouds.1 mph93%30.45 "HgN/A
8:50 am19 °FPassing clouds.1 mph93%30.45 "HgN/A
8:20 am19 °FFog.No wind93%30.45 "HgN/A
7:50 am19 °FFog.No wind93%30.42 "HgN/A
7:20 am19 °FFog.No wind93%30.42 "HgN/A
6:50 am21 °FFog.No wind93%30.42 "Hg5 mi
6:20 am19 °FIce fog.No wind93%30.39 "Hg3 mi
5:50 am19 °FIce fog.No wind93%30.39 "Hg3 mi
5:20 am19 °FPassing clouds.No wind93%30.39 "Hg5 mi
4:50 am18 °FPassing clouds.No wind93%30.39 "Hg5 mi
4:20 am19 °FPassing clouds.No wind93%30.39 "Hg5 mi
3:50 am19 °FPassing clouds.No wind100%30.39 "Hg6 mi
3:20 am19 °FPassing clouds.No wind93%30.39 "Hg6 mi
2:50 am19 °FPassing clouds.No wind86%30.39 "Hg6 mi
2:20 am19 °FPassing clouds.No wind86%30.36 "Hg6 mi
1:50 am19 °FIce fog.No wind100%30.36 "Hg2 mi
1:20 am19 °FIce fog.2 mph100%30.36 "Hg0 mi
12:50 am19 °FIce fog.1 mph100%30.36 "Hg0 mi
12:20 am21 °FIce fog.No wind100%30.36 "Hg0 mi
11:50 pm
Mon, Dec 5
21 °FIce fog.1 mph100%30.36 "Hg1 mi
11:20 pm21 °FIce fog.2 mph93%30.36 "Hg1 mi
10:50 pm21 °FIce fog.No wind93%30.36 "Hg1 mi
10:20 pm21 °FIce fog.No wind100%30.36 "Hg0 mi
Weather by CustomWeather, © 2016

See weather overviewHow to use our weather pages